Location: Kam�li
(14.6864°N, 3.1482°W)
Time: 01:44:30
(UTC+00:00)

CZ-4B R/B - Pass Details

Date: 29 October 2020
Orbit: 808 x 882 km, 99.1° (Epoch: 02 December)

Event Time Altitude Azimuth Distance (km) Brightness Sun altitude
Rises 18:13:37 0° 176° (S) 3,470 6.5 -7.5°
Reaches altitude 10° 18:16:03 10° 181° (S) 2,530 5.9 -8.1°
Maximum altitude 18:21:33 55° 258° (WSW) 1,040 4.1 -9.4°
Drops below altitude 10° 18:27:00 10° 335° (NNW) 2,503 5.8 -10.7°
Sets 18:29:25 0° 340° (NNW) 3,431 6.5 -11.3°
